Location: Drocourt
(49.0571°N, 1.7669°E)
Time: 13:18:45
(UTC+00:00)

SR - Pass Details

Date: 22 April 2024
Orbit: 579 x 859 km, 66.7° (Epoch: 28 May)

Event Time Altitude Azimuth Distance (km) Brightness Sun altitude
Rises 10:02:18 0° 320° (NW) 2,981 ? 47.0°
Reaches altitude 10° 10:04:43 10° 315° (NW) 2,026 ? 47.3°
Maximum altitude 10:09:03 47° 242° (WSW) 813 ? 47.7°
Drops below altitude 10° 10:13:09 10° 169° (S) 1,910 ? 48.1°
Sets 10:15:23 0° 163° (SSE) 2,791 ? 48.4°
